Location: Campolattaro
(41.2833°N, 14.7333°E)
Time: 00:34:43
(UTC+00:00)

MetOp-A - Pass Details

Date: 19 May 2025
Orbit: 521 x 774 km, 98.3° (Epoch: 23 June)

Event Time Altitude Azimuth Distance (km) Brightness Sun altitude
Exits shadow 22:11:17 70° 290° (WNW) 818 4.1 -27.8°
Drops below altitude 10° 22:16:08 10° 343° (NNW) 2,332 7.5 -28.0°
Sets 22:18:29 0° 345° (NNW) 3,262 8.5 -28.1°
